,,PA_Meas_PMT16A,,PR_Meas_QMR101_102,,RH_Meas_QMH101,,SR_Meas_QMS101,,TA_Meas_QMH101,,GenWind,,GenWind,
time,status,PA,status,PR,status,RH,status,SR,status,TA,status,DirAvg,status,SpdAvg,
2009-10-19, 00:00:04,VALID,918.67,VALID,0,VALID,96.1084,VALID,0,VALID,20.0913,VALID,21,VALID,0,
2009-10-19, 00:01:04,VALID,918.653,VALID,0,VALID,96.116,VALID,0,VALID,20.0703,VALID,21,VALID,0,
2009-10-19, 00:02:04,VALID,918.655,VALID,0,VALID,96.2914,VALID,0,VALID,20.0703,VALID,21,VALID,0.298047,
2009-10-19, 00:03:04,VALID,918.62,VALID,0,VALID,96.3752,VALID,0,VALID,20.1303,VALID,21,VALID,0.227734,
2009-10-19, 00:04:04,VALID,918.606,VALID,0,VALID,95.6053,VALID,0,VALID,19.9728,VALID,21,VALID,0.241406,
2009-10-19, 00:05:04,VALID,918.615,VALID,0,VALID,95.0335,VALID,0,VALID,19.8558,VALID,21,VALID,0.185156,
2009-10-19, 00:06:04,VALID,918.576,VALID,0,VALID,94.8582,VALID,0,VALID,19.7778,VALID,21,VALID,0.29375,
2009-10-19, 00:07:04,VALID,918.617,VALID,0,VALID,95.2165,VALID,0,VALID,19.7598,VALID,21,VALID,0.237891,
2009-10-19, 00:08:04,VALID,918.608,VALID,0,VALID,95.2775,VALID,0,VALID,19.7013,VALID,21,VALID,0.189063,
2009-10-19, 00:09:04,VALID,918.603,VALID,0,VALID,95.2012,VALID,0,VALID,19.6218,VALID,21,VALID,0.411328,
2009-10-19, 00:10:04,VALID,918.594,VALID,0,VALID,95.3003,VALID,0,VALID,19.5843,VALID,21,VALID,0.375,
2009-10-19, 00:11:04,VALID,918.572,VALID,0,VALID,95.7349,VALID,0,VALID,19.5243,VALID,21,VALID,0.4125,
2009-10-19, 00:12:04,VALID,918.554,VALID,0,VALID,96.3905,VALID,0,VALID,19.5843,VALID,21,VALID,0.325,
2009-10-19, 00:13:04,VALID,918.581,VALID,0,VALID,96.8098,VALID,0,VALID,19.6413,VALID,21,VALID,0.430859,
2009-10-19, 00:14:04,VALID,918.572,VALID,0,VALID,96.9851,VALID,0,VALID,19.7403,VALID,21,VALID,0.347266,
2009-10-19, 00:15:04,VALID,918.563,VALID,0,VALID,96.9622,VALID,0,VALID,19.7388,VALID,21,VALID,0.345703,
2009-10-19, 00:16:04,VALID,918.576,VALID,0,VALID,96.764,VALID,0,VALID,19.7013,VALID,21,VALID,0.450391,
2009-10-19, 00:17:04,VALID,918.576,VALID,0,VALID,96.8098,VALID,0,VALID,19.6818,VALID,21,VALID,0.655859,
2009-10-19, 00:18:04,VALID,918.586,VALID,0,VALID,96.6573,VALID,0,VALID,19.5843,VALID,21,VALID,0.823438,
2009-10-19, 00:19:04,VALID,918.582,VALID,0,VALID,96.9546,VALID,0,VALID,19.6218,VALID,21,VALID,0.825,
2009-10-19, 00:20:04,VALID,918.597,VALID,0,VALID,96.9927,VALID,0,VALID,19.6428,VALID,21,VALID,0.812891,
2009-10-19, 00:21:04,VALID,918.565,VALID,0,VALID,97.0766,VALID,0,VALID,19.6218,VALID,21,VALID,0.69375,
2009-10-19, 00:22:04,VALID,918.605,VALID,0,VALID,97.1604,VALID,0,VALID,19.6818,VALID,21,VALID,0.777344,
2009-10-19, 00:23:04,VALID,918.595,VALID,0,VALID,97.1833,VALID,0,VALID,19.7013,VALID,21,VALID,0.746094,
2009-10-19, 00:24:04,VALID,918.634,VALID,0,VALID,97.1833,VALID,0,VALID,19.6803,VALID,21,VALID,0.776563,
2009-10-19, 00:25:04,VALID,918.644,VALID,0,VALID,97.1681,VALID,0,VALID,19.7013,VALID,21,VALID,0.644922,
2009-10-19, 00:26:04,VALID,918.616,VALID,0,VALID,97.2214,VALID,0,VALID,19.7013,VALID,21,VALID,0.900781,
2009-10-19, 00:27:04,VALID,918.61,VALID,0,VALID,97.2672,VALID,0,VALID,19.6998,VALID,21,VALID,0.444141,
2009-10-19, 00:28:04,VALID,918.578,VALID,0,VALID,97.2595,VALID,0,VALID,19.7403,VALID,21,VALID,0.726953,
2009-10-19, 00:29:04,VALID,918.589,VALID,0,VALID,97.2977,VALID,0,VALID,19.7793,VALID,21,VALID,0.514453,
2009-10-19, 00:30:04,VALID,918.586,VALID,0,VALID,97.3129,VALID,0,VALID,19.7778,VALID,21,VALID,0.215234,
2009-10-19, 00:31:04,VALID,918.618,VALID,0,VALID,97.3129,VALID,0,VALID,19.8378,VALID,21,VALID,0,
2009-10-19, 00:32:04,VALID,918.567,VALID,0,VALID,97.1909,VALID,0,VALID,19.7583,VALID,21,VALID,0.400391,
2009-10-19, 00:33:04,VALID,918.576,VALID,0,VALID,97.2748,VALID,0,VALID,19.7583,VALID,21,VALID,0.572656,
2009-10-19, 00:34:04,VALID,918.552,VALID,0,VALID,97.2519,VALID,0,VALID,19.7793,VALID,21,VALID,0.692578,
2009-10-19, 00:35:04,VALID,918.561,VALID,0,VALID,97.2214,VALID,0,VALID,19.7403,VALID,21,VALID,0.808594,
2009-10-19, 00:36:04,VALID,918.575,VALID,0,VALID,97.1909,VALID,0,VALID,19.6803,VALID,21,VALID,0.652344,
2009-10-19, 00:37:04,VALID,918.562,VALID,0,VALID,97.1604,VALID,0,VALID,19.6623,VALID,21,VALID,0.648047,
2009-10-19, 00:38:04,VALID,918.6,VALID,0,VALID,97.29,VALID,0,VALID,19.6818,VALID,21,VALID,0.791797,
2009-10-19, 00:39:04,VALID,918.62,VALID,0,VALID,97.2824,VALID,0,VALID,19.6818,VALID,21,VALID,0.668359,
2009-10-19, 00:40:04,VALID,918.621,VALID,0,VALID,97.2519,VALID,0,VALID,19.6413,VALID,21,VALID,0.668359,
2009-10-19, 00:41:04,VALID,918.61,VALID,0,VALID,97.351,VALID,0,VALID,19.6818,VALID,21,VALID,0.941016,
2009-10-19, 00:42:04,VALID,918.566,VALID,0,VALID,97.351,VALID,0,VALID,19.7208,VALID,21,VALID,0.860547,
2009-10-19, 00:43:04,VALID,918.57,VALID,0,VALID,97.3586,VALID,0,VALID,19.7403,VALID,21,VALID,0.955859,
2009-10-19, 00:44:04,VALID,918.509,VALID,0,VALID,97.3586,VALID,0,VALID,19.7598,VALID,21,VALID,0.946875,
2009-10-19, 00:45:04,VALID,918.509,VALID,0,VALID,97.3053,VALID,0,VALID,19.7778,VALID,21,VALID,0.736328,
2009-10-19, 00:46:04,VALID,918.488,VALID,0,VALID,97.2595,VALID,0,VALID,19.7988,VALID,21,VALID,0.448047,
2009-10-19, 00:47:04,VALID,918.465,VALID,0,VALID,97.2595,VALID,0,VALID,19.8168,VALID,21,VALID,0.396094,
2009-10-19, 00:48:04,VALID,918.472,VALID,0,VALID,97.2824,VALID,0,VALID,19.8768,VALID,21,VALID,0.482812,
2009-10-19, 00:49:04,VALID,918.487,VALID,0,VALID,97.2519,VALID,0,VALID,19.8963,VALID,21,VALID,0.428906,
2009-10-19, 00:50:04,VALID,918.469,VALID,0,VALID,97.2214,VALID,0,VALID,19.8753,VALID,21,VALID,0.212891,
2009-10-19, 00:51:04,VALID,918.491,VALID,0,VALID,97.229,VALID,0,VALID,19.8963,VALID,21,VALID,0.241016,
2009-10-19, 00:52:04,VALID,918.469,VALID,0,VALID,97.229,VALID,0,VALID,19.8753,VALID,21,VALID,0.117188,
2009-10-19, 00:53:04,VALID,918.494,VALID,0,VALID,97.1833,VALID,0,VALID,19.8753,VALID,21,VALID,0.113281,
2009-10-19, 00:54:04,VALID,918.474,VALID,0,VALID,97.1757,VALID,0,VALID,19.8558,VALID,21,VALID,0.0644531,
2009-10-19, 00:55:04,VALID,918.441,VALID,0,VALID,97.1528,VALID,0,VALID,19.8558,VALID,21,VALID,0,
2009-10-19, 00:56:04,VALID,918.45,VALID,0,VALID,97.1071,VALID,0,VALID,19.8573,VALID,21,VALID,0,
2009-10-19, 00:57:04,VALID,918.437,VALID,0,VALID,97.0918,VALID,0,VALID,19.8168,VALID,21,VALID,0.00273437,
2009-10-19, 00:58:04,VALID,918.425,VALID,0,VALID,97.0385,VALID,0,VALID,19.7973,VALID,21,VALID,0.320703,
2009-10-19, 00:59:04,VALID,918.427,VALID,0,VALID,97.069,VALID,0,VALID,19.7973,VALID,21,VALID,0.578906,
2009-10-19, 01:00:04,VALID,918.398,VALID,0,VALID,97.2443,VALID,0,VALID,19.8558,VALID,21,VALID,0.576953,
2009-10-19, 01:01:04,VALID,918.413,VALID,0,VALID,97.3205,VALID,0,VALID,19.9158,VALID,21,VALID,0.592969,
2009-10-19, 01:02:04,VALID,918.406,VALID,0,VALID,97.2824,VALID,0,VALID,19.9338,VALID,21,VALID,0.305859,
2009-10-19, 01:03:04,VALID,918.374,VALID,0,VALID,97.2824,VALID,0,VALID,19.9743,VALID,21,VALID,0.329688,
2009-10-19, 01:04:04,VALID,918.378,VALID,0,VALID,97.2672,VALID,0,VALID,19.9533,VALID,21,VALID,0.614062,
2009-10-19, 01:05:04,VALID,918.342,VALID,0,VALID,97.2748,VALID,0,VALID,19.9923,VALID,21,VALID,0.316406,
2009-10-19, 01:06:04,VALID,918.333,VALID,0,VALID,97.229,VALID,0,VALID,19.9923,VALID,21,VALID,0.398047,
2009-10-19, 01:07:04,VALID,918.327,VALID,0,VALID,97.1757,VALID,0,VALID,19.9923,VALID,21,VALID,0.729297,
2009-10-19, 01:08:04,VALID,918.308,VALID,0,VALID,97.1986,VALID,0,VALID,19.9923,VALID,21,VALID,0.377344,
2009-10-19, 01:09:04,VALID,918.286,VALID,0,VALID,97.1528,VALID,0,VALID,19.9728,VALID,21,VALID,0.149609,
2009-10-19, 01:10:04,VALID,918.298,VALID,0,VALID,97.1452,VALID,0,VALID,19.9728,VALID,21,VALID,0.245703,
2009-10-19, 01:11:04,VALID,918.284,VALID,0,VALID,97.1528,VALID,0,VALID,19.9728,VALID,21,VALID,0.455859,
2009-10-19, 01:12:04,VALID,918.302,VALID,0,VALID,97.0918,VALID,0,VALID,19.9743,VALID,21,VALID,0.326953,
2009-10-19, 01:13:04,VALID,918.291,VALID,0,VALID,97.1071,VALID,0,VALID,19.9533,VALID,21,VALID,0.798828,
2009-10-19, 01:14:04,VALID,918.263,VALID,0,VALID,97.1376,VALID,0,VALID,19.9533,VALID,21,VALID,0.694531,
2009-10-19, 01:15:04,VALID,918.28,VALID,0,VALID,97.1833,VALID,0,VALID,19.9938,VALID,21,VALID,0.421875,
2009-10-19, 01:16:04,VALID,918.27,VALID,0,VALID,97.1986,VALID,0,VALID,19.9923,VALID,21,VALID,0.200391,
2009-10-19, 01:17:04,VALID,918.231,VALID,0,VALID,97.2062,VALID,0,VALID,19.9923,VALID,21,VALID,0.568359,
2009-10-19, 01:18:04,VALID,918.206,VALID,0,VALID,97.1986,VALID,0,VALID,20.0118,VALID,21,VALID,0.540234,
2009-10-19, 01:19:04,VALID,918.167,VALID,0,VALID,97.2062,VALID,0,VALID,19.9923,VALID,21,VALID,0.564844,
2009-10-19, 01:20:04,VALID,918.134,VALID,0,VALID,97.2062,VALID,0,VALID,20.0118,VALID,21,VALID,0.341797,
2009-10-19, 01:21:04,VALID,918.075,VALID,0,VALID,97.229,VALID,0,VALID,20.0118,VALID,21,VALID,0.396094,
2009-10-19, 01:22:04,VALID,918.08,VALID,0,VALID,97.229,VALID,0,VALID,20.0118,VALID,21,VALID,0.152344,
2009-10-19, 01:23:04,VALID,918.037,VALID,0,VALID,97.2595,VALID,0,VALID,20.0328,VALID,21,VALID,0.261719,
2009-10-19, 01:24:04,VALID,918.033,VALID,0,VALID,97.229,VALID,0,VALID,20.0313,VALID,21,VALID,0.357031,
2009-10-19, 01:25:04,VALID,918.019,VALID,0,VALID,97.2443,VALID,0,VALID,20.0523,VALID,21,VALID,0.386328,
2009-10-19, 01:26:04,VALID,918.013,VALID,0,VALID,97.229,VALID,0,VALID,20.0313,VALID,21,VALID,0.649219,
2009-10-19, 01:27:04,VALID,917.966,VALID,0,VALID,97.2138,VALID,0,VALID,20.0118,VALID,21,VALID,0.823438,
2009-10-19, 01:28:04,VALID,917.942,VALID,0,VALID,97.2367,VALID,0,VALID,20.0118,VALID,21,VALID,0.598047,
2009-10-19, 01:29:04,VALID,917.931,VALID,0,VALID,97.2443,VALID,0,VALID,20.0313,VALID,21,VALID,0.214453,
2009-10-19, 01:30:04,VALID,917.88,VALID,0,VALID,97.2672,VALID,0,VALID,20.0313,VALID,21,VALID,0.533594,
2009-10-19, 01:31:04,VALID,917.85,VALID,0,VALID,97.1909,VALID,0,VALID,20.0118,VALID,21,VALID,0.340625,
2009-10-19, 01:32:04,VALID,917.835,VALID,0,VALID,97.1833,VALID,0,VALID,19.9728,VALID,21,VALID,0.745313,
2009-10-19, 01:33:04,VALID,917.838,VALID,0,VALID,97.1909,VALID,0,VALID,19.9533,VALID,21,VALID,0.823438,
2009-10-19, 01:34:04,VALID,917.798,VALID,0,VALID,97.1681,VALID,0,VALID,19.9338,VALID,21,VALID,0.947266,
2009-10-19, 01:35:04,VALID,917.819,VALID,0,VALID,97.229,VALID,0,VALID,19.9143,VALID,21,VALID,1.18477,
2009-10-19, 01:36:04,VALID,917.803,VALID,0,VALID,97.2214,VALID,0,VALID,19.8948,VALID,21,VALID,0.825781,
2009-10-19, 01:37:04,VALID,917.791,VALID,0,VALID,97.2443,VALID,0,VALID,19.8753,VALID,21,VALID,0.781641,
2009-10-19, 01:38:04,VALID,917.782,VALID,0,VALID,97.2672,VALID,0,VALID,19.8768,VALID,21,VALID,0.603906,
2009-10-19, 01:39:04,VALID,917.775,VALID,0,VALID,97.2977,VALID,0,VALID,19.8768,VALID,21,VALID,0.482422,
2009-10-19, 01:40:04,VALID,917.767,VALID,0,VALID,97.3053,VALID,0,VALID,19.8363,VALID,21,VALID,0.528516,
2009-10-19, 01:41:04,VALID,917.75,VALID,0,VALID,97.3281,VALID,0,VALID,19.8363,VALID,21,VALID,0.687891,
2009-10-19, 01:42:04,VALID,917.734,VALID,0,VALID,97.3434,VALID,0,VALID,19.8168,VALID,21,VALID,0.761328,
2009-10-19, 01:43:04,VALID,917.74,VALID,0,VALID,97.3663,VALID,0,VALID,19.8168,VALID,21,VALID,0.559766,
2009-10-19, 01:44:04,VALID,917.708,VALID,0,VALID,97.3891,VALID,0,VALID,19.8378,VALID,21,VALID,0.829297,
2009-10-19, 01:45:04,VALID,917.695,VALID,0,VALID,97.3891,VALID,0,VALID,19.8168,VALID,21,VALID,0.705078,
2009-10-19, 01:46:04,VALID,917.701,VALID,0,VALID,97.3891,VALID,0,VALID,19.8378,VALID,21,VALID,0.472266,
2009-10-19, 01:47:04,VALID,917.684,VALID,0,VALID,97.4196,VALID,0,VALID,19.8573,VALID,21,VALID,0.630859,
2009-10-19, 01:48:04,VALID,917.684,VALID,0,VALID,97.4425,VALID,0,VALID,19.8573,VALID,21,VALID,0.901563,
2009-10-19, 01:49:04,VALID,917.718,VALID,0,VALID,97.4425,VALID,0,VALID,19.8363,VALID,21,VALID,0.91875,
2009-10-19, 01:50:04,VALID,917.71,VALID,0,VALID,97.4654,VALID,0,VALID,19.8768,VALID,141,VALID,0.935156,
2009-10-19, 01:51:04,VALID,917.737,VALID,0,VALID,97.473,VALID,0,VALID,19.8753,VALID,141,VALID,0.764844,
2009-10-19, 01:52:04,VALID,917.692,VALID,0,VALID,97.4654,VALID,0,VALID,19.8753,VALID,141,VALID,0.648438,
2009-10-19, 01:53:04,VALID,917.718,VALID,0,VALID,97.4654,VALID,0.107441,VALID,19.8753,VALID,141,VALID,0.610156,
2009-10-19, 01:54:04,VALID,917.715,VALID,0,VALID,97.4882,VALID,0,VALID,19.8948,VALID,142,VALID,0.442187,
2009-10-19, 01:55:04,VALID,917.695,VALID,0,VALID,97.5035,VALID,0,VALID,19.9143,VALID,142,VALID,0.434766,
2009-10-19, 01:56:04,VALID,917.734,VALID,0,VALID,97.5187,VALID,0,VALID,19.9548,VALID,142,VALID,0.491016,
2009-10-19, 01:57:04,VALID,917.733,VALID,0,VALID,97.4959,VALID,0,VALID,19.9548,VALID,142,VALID,0.367188,
2009-10-19, 01:58:04,VALID,917.697,VALID,0,VALID,97.4959,VALID,0,VALID,19.9353,VALID,142,VALID,0.528125,
2009-10-19, 01:59:04,VALID,917.715,VALID,0,VALID,97.5187,VALID,0,VALID,19.9548,VALID,142,VALID,0.613672,
2009-10-19, 02:00:04,VALID,917.694,VALID,0,VALID,97.4959,VALID,0,VALID,19.9353,VALID,142,VALID,0.375391,
2009-10-19, 02:01:04,VALID,917.678,VALID,0,VALID,97.4959,VALID,0,VALID,19.9143,VALID,147,VALID,0.970703,
2009-10-19, 02:02:04,VALID,917.677,VALID,0,VALID,97.5187,VALID,0,VALID,19.9353,VALID,147,VALID,0.833984,
2009-10-19, 02:03:04,VALID,917.664,VALID,0,VALID,97.5111,VALID,0,VALID,19.9353,VALID,147,VALID,1.06328,
2009-10-19, 02:04:04,VALID,917.616,VALID,0,VALID,97.5111,VALID,0,VALID,19.9353,VALID,147,VALID,0.532031,
2009-10-19, 02:05:04,VALID,917.62,VALID,0,VALID,97.534,VALID,0,VALID,19.9143,VALID,147,VALID,0.538672,
2009-10-19, 02:06:04,VALID,917.602,VALID,0,VALID,97.5187,VALID,0,VALID,19.9158,VALID,147,VALID,1.11133,
2009-10-19, 02:07:04,VALID,917.597,VALID,0,VALID,97.5492,VALID,0,VALID,19.9353,VALID,147,VALID,0.943359,
2009-10-19, 02:08:04,VALID,917.583,VALID,0,VALID,97.5111,VALID,0,VALID,19.9158,VALID,147,VALID,0.940234,
2009-10-19, 02:09:04,VALID,917.555,VALID,0,VALID,97.5111,VALID,0,VALID,19.9158,VALID,147,VALID,0.973047,
2009-10-19, 02:10:04,VALID,917.542,VALID,0,VALID,97.5187,VALID,0,VALID,19.9368,VALID,147,VALID,0.829297,
2009-10-19, 02:11:04,VALID,917.498,VALID,0,VALID,97.5264,VALID,0,VALID,19.9353,VALID,147,VALID,0.360938,
2009-10-19, 02:12:04,VALID,917.515,VALID,0,VALID,97.5416,VALID,0,VALID,19.9353,VALID,147,VALID,0.460938,
2009-10-19, 02:13:04,VALID,917.488,VALID,0,VALID,97.5492,VALID,0,VALID,19.9353,VALID,146,VALID,0.45,
2009-10-19, 02:14:04,VALID,917.483,VALID,0,VALID,97.5492,VALID,0,VALID,19.9353,VALID,147,VALID,0.425781,
2009-10-19, 02:15:04,VALID,917.471,VALID,0,VALID,97.5264,VALID,0,VALID,19.9353,VALID,146,VALID,0.163281,
2009-10-19, 02:16:04,VALID,917.468,VALID,0,VALID,97.5416,VALID,0,VALID,19.9548,VALID,146,VALID,0,
2009-10-19, 02:17:04,VALID,917.462,VALID,0,VALID,97.5645,VALID,0,VALID,19.9533,VALID,147,VALID,0,
2009-10-19, 02:18:04,VALID,917.457,VALID,0,VALID,97.5492,VALID,0,VALID,19.9743,VALID,147,VALID,0,
2009-10-19, 02:19:04,VALID,917.436,VALID,0,VALID,97.5645,VALID,0,VALID,19.9938,VALID,147,VALID,0,
2009-10-19, 02:20:04,VALID,917.432,VALID,0,VALID,97.5721,VALID,0,VALID,19.9938,VALID,147,VALID,0,
2009-10-19, 02:21:04,VALID,917.432,VALID,0,VALID,97.5492,VALID,0,VALID,20.0133,VALID,146,VALID,0,
2009-10-19, 02:22:04,VALID,917.418,VALID,0,VALID,97.5645,VALID,0,VALID,20.0328,VALID,146,VALID,0,
2009-10-19, 02:23:04,VALID,917.405,VALID,0,VALID,97.5416,VALID,0,VALID,20.0328,VALID,146,VALID,0,
2009-10-19, 02:24:04,VALID,917.388,VALID,0,VALID,97.5492,VALID,0,VALID,20.0328,VALID,146,VALID,0,
2009-10-19, 02:25:04,VALID,917.396,VALID,0,VALID,97.534,VALID,0,VALID,20.0328,VALID,147,VALID,0,
2009-10-19, 02:26:04,VALID,917.382,VALID,0,VALID,97.5111,VALID,0,VALID,20.0133,VALID,146,VALID,0,
2009-10-19, 02:27:04,VALID,917.367,VALID,0,VALID,97.5416,VALID,0,VALID,20.0133,VALID,147,VALID,0,
2009-10-19, 02:28:04,VALID,917.359,VALID,0,VALID,97.5035,VALID,0,VALID,19.9938,VALID,147,VALID,0,
2009-10-19, 02:29:04,VALID,917.368,VALID,0,VALID,97.4959,VALID,0,VALID,19.9743,VALID,146,VALID,0,
2009-10-19, 02:30:04,VALID,917.362,VALID,0,VALID,97.5187,VALID,0,VALID,19.9533,VALID,147,VALID,0,
2009-10-19, 02:31:04,VALID,917.373,VALID,0,VALID,97.5035,VALID,0,VALID,19.9548,VALID,147,VALID,0,
2009-10-19, 02:32:04,VALID,917.353,VALID,0,VALID,97.5187,VALID,0,VALID,19.9143,VALID,146,VALID,0.0328125,
2009-10-19, 02:33:04,VALID,917.359,VALID,0,VALID,97.5264,VALID,0,VALID,19.9158,VALID,147,VALID,0.580859,
2009-10-19, 02:34:04,VALID,917.32,VALID,0,VALID,97.5111,VALID,0,VALID,19.9158,VALID,147,VALID,0.627734,
2009-10-19, 02:35:04,VALID,917.335,VALID,0,VALID,97.5111,VALID,0,VALID,19.8963,VALID,147,VALID,0.745703,
2009-10-19, 02:36:04,VALID,917.317,VALID,0,VALID,97.5492,VALID,0,VALID,19.8963,VALID,147,VALID,0.519922,
2009-10-19, 02:37:04,VALID,917.306,VALID,0,VALID,97.5569,VALID,0,VALID,19.9158,VALID,147,VALID,0.580859,
2009-10-19, 02:38:04,VALID,917.26,VALID,0,VALID,97.534,VALID,0,VALID,19.8768,VALID,147,VALID,0.509375,
2009-10-19, 02:39:04,VALID,917.234,VALID,0,VALID,97.5492,VALID,0,VALID,19.8963,VALID,146,VALID,0.304688,
2009-10-19, 02:40:04,VALID,917.247,VALID,0,VALID,97.5721,VALID,0,VALID,19.9158,VALID,147,VALID,0.436719,
2009-10-19, 02:41:04,VALID,917.218,VALID,0,VALID,97.5873,VALID,0,VALID,19.9353,VALID,147,VALID,0.310156,
2009-10-19, 02:42:04,VALID,917.203,VALID,0,VALID,97.5797,VALID,0,VALID,19.9548,VALID,147,VALID,0.243359,
2009-10-19, 02:43:04,VALID,917.203,VALID,0,VALID,97.595,VALID,0,VALID,19.9533,VALID,147,VALID,0.325781,
2009-10-19, 02:44:04,VALID,917.186,VALID,0,VALID,97.5569,VALID,0,VALID,19.9533,VALID,146,VALID,0.291406,
2009-10-19, 02:45:04,VALID,917.158,VALID,0,VALID,97.534,VALID,0,VALID,19.9338,VALID,146,VALID,0.508984,
2009-10-19, 02:46:04,VALID,917.119,VALID,0,VALID,97.5492,VALID,0,VALID,19.9548,VALID,147,VALID,0.304297,
2009-10-19, 02:47:04,VALID,917.099,VALID,0,VALID,97.5492,VALID,0,VALID,19.9743,VALID,146,VALID,0.239453,
2009-10-19, 02:48:04,VALID,917.08,VALID,0,VALID,97.5569,VALID,0,VALID,19.9743,VALID,146,VALID,0.323047,
2009-10-19, 02:49:04,VALID,917.031,VALID,0,VALID,97.5569,VALID,0,VALID,19.9533,VALID,147,VALID,0.0816406,
2009-10-19, 02:50:04,VALID,916.977,VALID,0,VALID,97.5416,VALID,0,VALID,19.9938,VALID,146,VALID,0.0289063,
2009-10-19, 02:51:04,VALID,916.979,VALID,0,VALID,97.5416,VALID,0,VALID,19.9938,VALID,146,VALID,0.633203,
2009-10-19, 02:52:04,VALID,916.942,VALID,0,VALID,97.4959,VALID,0,VALID,19.9938,VALID,147,VALID,0.850391,
2009-10-19, 02:53:04,VALID,916.962,VALID,0,VALID,97.4501,VALID,0.107441,VALID,19.9143,VALID,146,VALID,0.815625,
2009-10-19, 02:54:04,VALID,916.938,VALID,0,VALID,97.4959,VALID,0.107441,VALID,19.9338,VALID,146,VALID,0.856641,
2009-10-19, 02:55:04,VALID,916.966,VALID,0,VALID,97.4349,VALID,0,VALID,19.8948,VALID,147,VALID,0.828906,
2009-10-19, 02:56:04,VALID,916.967,VALID,0,VALID,97.4273,VALID,0,VALID,19.8558,VALID,147,VALID,0.812891,
2009-10-19, 02:57:04,VALID,916.973,VALID,0,VALID,97.412,VALID,0,VALID,19.8363,VALID,147,VALID,0.596094,
2009-10-19, 02:58:04,VALID,917.022,VALID,0,VALID,97.412,VALID,0.107441,VALID,19.8168,VALID,147,VALID,0.507813,
2009-10-19, 02:59:04,VALID,917.029,VALID,0,VALID,97.4577,VALID,0,VALID,19.8183,VALID,147,VALID,0.426172,
2009-10-19, 03:00:04,VALID,917.046,VALID,0,VALID,97.5035,VALID,0.107441,VALID,19.7973,VALID,147,VALID,0.324219,
2009-10-19, 03:01:04,VALID,917.052,VALID,0,VALID,97.4806,VALID,0.107441,VALID,19.8168,VALID,147,VALID,0.254297,
2009-10-19, 03:02:04,VALID,917.058,VALID,0,VALID,97.5111,VALID,0,VALID,19.8168,VALID,147,VALID,0,
2009-10-19, 03:03:04,VALID,917.046,VALID,0,VALID,97.5187,VALID,0.107441,VALID,19.8168,VALID,147,VALID,0,
2009-10-19, 03:04:04,VALID,917.035,VALID,0,VALID,97.4959,VALID,0,VALID,19.8183,VALID,147,VALID,0.3,
2009-10-19, 03:05:04,VALID,917.029,VALID,0,VALID,97.4654,VALID,0,VALID,19.7778,VALID,146,VALID,0.430859,
2009-10-19, 03:06:04,VALID,917.034,VALID,0,VALID,97.4349,VALID,0.107441,VALID,19.7388,VALID,147,VALID,0.569141,
2009-10-19, 03:07:04,VALID,917.034,VALID,0,VALID,97.4425,VALID,0.107441,VALID,19.7193,VALID,147,VALID,0.585938,
2009-10-19, 03:08:04,VALID,917.044,VALID,0,VALID,97.4501,VALID,0,VALID,19.7208,VALID,147,VALID,0.278125,
2009-10-19, 03:09:04,VALID,917.052,VALID,0,VALID,97.4806,VALID,0.107441,VALID,19.6998,VALID,146,VALID,0.272656,
2009-10-19, 03:10:04,VALID,917.05,VALID,0,VALID,97.473,VALID,0,VALID,19.6803,VALID,147,VALID,0.307813,
2009-10-19, 03:11:04,VALID,917.062,VALID,0,VALID,97.534,VALID,0.107441,VALID,19.6998,VALID,147,VALID,0.320313,
2009-10-19, 03:12:04,VALID,917.079,VALID,0,VALID,97.5416,VALID,0,VALID,19.7193,VALID,147,VALID,0.349219,
2009-10-19, 03:13:04,VALID,917.097,VALID,0,VALID,97.5645,VALID,0,VALID,19.7388,VALID,146,VALID,0.469531,
2009-10-19, 03:14:04,VALID,917.124,VALID,0,VALID,97.5645,VALID,0,VALID,19.7388,VALID,147,VALID,0.260547,
2009-10-19, 03:15:04,VALID,917.127,VALID,0,VALID,97.5645,VALID,0.107441,VALID,19.7583,VALID,146,VALID,0.0101562,
2009-10-19, 03:16:04,VALID,917.11,VALID,0,VALID,97.5721,VALID,0,VALID,19.7583,VALID,147,VALID,0.00195313,
2009-10-19, 03:17:04,VALID,917.132,VALID,0,VALID,97.5797,VALID,0.107441,VALID,19.7778,VALID,146,VALID,0.257031,
2009-10-19, 03:18:04,VALID,917.122,VALID,0,VALID,97.595,VALID,0,VALID,19.7973,VALID,147,VALID,0,
2009-10-19, 03:19:04,VALID,917.096,VALID,0,VALID,97.5569,VALID,0,VALID,19.8168,VALID,146,VALID,0,
2009-10-19, 03:20:04,VALID,917.101,VALID,0,VALID,97.5797,VALID,0,VALID,19.8183,VALID,146,VALID,0.357031,
2009-10-19, 03:21:04,VALID,917.107,VALID,0,VALID,97.5873,VALID,0.107441,VALID,19.8168,VALID,147,VALID,0.353516,
2009-10-19, 03:22:04,VALID,917.082,VALID,0,VALID,97.5797,VALID,0,VALID,19.8168,VALID,147,VALID,0.35625,
2009-10-19, 03:23:04,VALID,917.087,VALID,0,VALID,97.5492,VALID,0.107441,VALID,19.8168,VALID,147,VALID,0.417188,
2009-10-19, 03:24:04,VALID,917.068,VALID,0,VALID,97.5492,VALID,0,VALID,19.8168,VALID,146,VALID,0.439844,
2009-10-19, 03:25:04,VALID,917.087,VALID,0,VALID,97.5264,VALID,0,VALID,19.8168,VALID,147,VALID,0.433594,
2009-10-19, 03:26:04,VALID,917.103,VALID,0,VALID,97.473,VALID,0.107441,VALID,19.7988,VALID,147,VALID,0.516016,
2009-10-19, 03:27:04,VALID,917.12,VALID,0,VALID,97.4349,VALID,0,VALID,19.7793,VALID,147,VALID,0.440625,
2009-10-19, 03:28:04,VALID,917.115,VALID,0,VALID,97.4806,VALID,0,VALID,19.6998,VALID,146,VALID,0.532031,
2009-10-19, 03:29:04,VALID,917.13,VALID,0,VALID,97.4882,VALID,0,VALID,19.6998,VALID,147,VALID,0.490234,
2009-10-19, 03:30:04,VALID,917.117,VALID,0,VALID,97.5111,VALID,0,VALID,19.6998,VALID,147,VALID,0.373437,
2009-10-19, 03:31:04,VALID,917.094,VALID,0,VALID,97.534,VALID,0.107441,VALID,19.6998,VALID,147,VALID,0.279297,
2009-10-19, 03:32:04,VALID,917.091,VALID,0,VALID,97.5416,VALID,0,VALID,19.7403,VALID,147,VALID,0.190625,
2009-10-19, 03:33:04,VALID,917.108,VALID,0,VALID,97.5492,VALID,0,VALID,19.7193,VALID,146,VALID,0.24375,
2009-10-19, 03:34:04,VALID,917.094,VALID,0,VALID,97.5645,VALID,0.107441,VALID,19.6998,VALID,146,VALID,0.0410156,
2009-10-19, 03:35:04,VALID,917.075,VALID,0,VALID,97.5873,VALID,0.107441,VALID,19.7208,VALID,147,VALID,0,
2009-10-19, 03:36:04,VALID,917.087,VALID,0,VALID,97.5721,VALID,0.107441,VALID,19.6998,VALID,147,VALID,0.000390625,
2009-10-19, 03:37:04,VALID,917.103,VALID,0,VALID,97.5797,VALID,0.107441,VALID,19.7403,VALID,147,VALID,0.303125,
2009-10-19, 03:38:04,VALID,917.096,VALID,0,VALID,97.5873,VALID,0.107441,VALID,19.7193,VALID,147,VALID,0.192578,
2009-10-19, 03:39:04,VALID,917.095,VALID,0,VALID,97.5797,VALID,0,VALID,19.7193,VALID,147,VALID,0.410156,
2009-10-19, 03:40:04,VALID,917.089,VALID,0,VALID,97.6178,VALID,0.107441,VALID,19.7403,VALID,147,VALID,0.438281,
2009-10-19, 03:41:04,VALID,917.064,VALID,0,VALID,97.5873,VALID,0,VALID,19.7208,VALID,147,VALID,0.349609,
2009-10-19, 03:42:04,VALID,917.042,VALID,0,VALID,97.6026,VALID,0.107441,VALID,19.7193,VALID,147,VALID,0.271875,
2009-10-19, 03:43:04,VALID,917.038,VALID,0,VALID,97.5797,VALID,0,VALID,19.7193,VALID,146,VALID,0.332812,
2009-10-19, 03:44:04,VALID,917.009,VALID,0,VALID,97.5873,VALID,0,VALID,19.7193,VALID,147,VALID,0.382031,
2009-10-19, 03:45:04,VALID,917.003,VALID,0,VALID,97.5797,VALID,0,VALID,19.7403,VALID,147,VALID,0.179688,